SCP
0 0 0 0 0 0 0 0 0 0 0 0 0 0 0 0 0 0 0 0 0 0 0 0 0 0 0 0 0 0 0 0 0 0 0 0 0 0 0 0 0 0 0
0 0 0 0 0 0 0 0 0 0 0 0 0 0 0 0 0 0 0 0 0 0 0 0 0 0 0 0 0 0 0 0 0 0 0 0 0 0 0 0 0 0 0
0 0 0 0 0 0 0 0 0 0 0 0 0 0 0 0 0 0 0 0 0 0 0 0 0 0 0 0 0 0 0 0 0 0 0 0 0 0 0 0 0 0 0
0 0 0 0 0 0 0 0 0 0 0 0 0 0 0 0 0 0 0 0 0 0 0 0 0 0 0 0 0 0 0 0 0 0 0 0 0 0 0 0 0 0 0
0 0 0 0 0 0 0 0 0 0 0 0 0 0 0 0 0 0 0 0 0 0 0 0 0 0 0 0 0 0 0 0 0 0 0 0 0 0 0 0 0 0 0
0 0 0 0 0 0 0 0 0 0 0 0 0 0 0 0 0 0 0 0 0 0 0 0 0 0 0 0 0 0 -0 0 0 0 0 0 0 0 0 0 0 0 0
0 0 0 0 0 0 0 0 0 0 0 0 0 0 0 0 0 0 0 0 0 0 0 0 0 0 0 0 0 0 -0 -0 0 0 0 0 0 0 0 0 0 0 -0
1 0 0 0 0 0 0 0 0 0 0 0 0 0 0 0 0 0 0 0 0 0 0 0 0 0 0 0 0 0 0 0 0 0 0 0 0 0 0 0 0 -0 -0
2 1 0 0 0 0 0 0 0 0 0 0 0 0 0 0 0 0 0 0 0 0 0 0 0 0 0 0 0 0 0 0 0 0 0 0 0 0 0 0 0 0 0
2 2 1 1 1 0 0 0 0 0 0 0 0 0 0 0 0 0 0 0 0 0 0 0 0 0 0 0 0 0 0 0 0 0 0 0 0 0 0 0 0 0 0
1 2 2 1 1 0 0 0 0 0 0 0 0 0 0 0 0 0 0 0 0 0 0 0 0 0 0 0 0 0 0 0 0 0 0 0 0 0 0 0 0 0 0
1 2 2 1 1 0 0 0 0 0 0 0 0 0 0 0 0 0 0 0 0 0 0 0 0 0 0 0 0 0 0 0 0 0 0 0 0 0 0 0 0 0 0
1 1 1 1 1 1 0 0 0 0 0 0 0 0 0 0 0 0 0 0 0 0 0 0 0 0 0 0 0 0 0 0 0 0 0 0 0 0 0 0 0 0 0
1 1 1 1 0 1 1 0 0 0 0 0 0 0 0 0 0 0 0 0 0 0 0 0 0 0 0 0 0 0 0 0 0 0 0 0 0 0 0 0 0 0 0
1 1 1 1 1 1 0 0 0 0 0 0 0 0 0 0 0 0 0 0 0 0 0 0 0 0 0 0 0 0 0 0 0 0 0 0 0 0 0 0 0 0 0
2 1 0 0 1 1 0 0 0 0 0 0 0 0 0 0 0 0 0 0 0 0 0 0 0 0 0 0 0 0 0 0 0 0 0 0 0 0 0 0 0 0 0
1 0 0 0 1 0 0 0 0 0 0 0 0 0 0 0 0 0 0 0 0 0 0 0 0 0 0 0 0 0 0 0 0 0 0 0 0 0 0 0 0 0 0
1 0 0 1 0 1 0 0 0 0 0 0 0 0 0 0 0 0 0 0 0 0 0 0 0 0 0 0 0 0 0 0 0 0 0 0 0 0 0 0 0 0 0
1 1 1 1 1 0 0 0 0 0 0 0 0 0 0 0 0 0 0 0 0 0 0 0 0 0 0 0 0 0 0 0 0 0 0 0 0 0 0 0 0 0 0
1 1 0 0 0 0 0 0 0 0 0 0 0 0 0 0 0 0 0 0 0 0 0 0 0 0 0 0 0 0 0 0 0 0 0 0 0 0 0 0 0 0 0
1 0 0 0 0 0 0 0 0 0 0 0 0 0 0 0 0 0 0 0 0 0 0 0 0 0 0 0 0 0 0 0 0 0 0 0 0 0 0 0 0 0 0
0 0 0 0 0 0 0 0 0 0 0 0 0 0 0 0 0 0 0 0 0 0 0 0 0 0 0 0 0 0 0 0 0 0 0 0 0 0 0 0 0 0 0
0 0 0 0 0 0 0 0 0 0 0 0 0 0 0 0 0 0 0 0 0 0 0 0 0 0 0 0 0 0 0 0 0 0 0 0 0 0 0 0 0 0 0
0 0 0 0 0 0 0 0 0 0 0 0 0 0 0 0 -0 0 0 0 0 0 0 0 0 0 0 0 0 0 0 0 0 0 0 0 0 0 0 0 0 0 0
0 0 0 0 0 0 0 0 0 0 0 0 0 -0 0 0 0 0 0 0 0 0 0 0 0 0 0 0 0 0 0 0 0 0 0 0 0 0 0 0 0 0 0
0 0 0 0 0 0 0 0 0 0 0 0 0 0 0 0 -0 0 0 0 0 0 0 0 0 0 0 0 0 0 0 0 0 0 0 0 0 0 0 0 0 0 0
Wind_Speed_500mb
56 58 58 56 53 52 53 54 53 54 53 51 53 49 44 38 34 35 31 27 25 22 19 22 23 23 28 26 19 24 27 30 34 39 42 41 40 40 42 38 32 29 29
59 57 57 55 49 48 50 50 49 51 51 48 47 46 44 39 35 34 30 28 28 26 26 28 25 28 32 27 21 25 29 31 33 36 39 38 37 38 43 37 32 34 34
57 52 52 50 42 39 42 45 43 45 45 44 41 39 38 34 32 35 35 32 34 33 30 35 33 32 32 26 25 25 32 36 36 35 35 35 33 38 41 36 36 34 34
54 54 54 52 40 38 38 38 38 40 40 41 35 31 30 31 28 37 37 38 34 36 37 40 41 37 34 27 29 25 32 38 40 37 34 32 33 34 38 39 35 35 31
55 59 61 56 45 42 43 39 41 39 41 37 33 29 27 29 33 29 35 37 36 37 41 37 37 35 38 38 31 31 30 40 43 41 38 34 33 34 37 36 34 36 30
56 60 63 60 54 47 48 46 45 40 41 33 34 32 32 33 38 38 33 34 37 40 38 35 32 34 38 39 37 35 31 37 43 41 39 37 35 36 38 36 37 40 29
57 59 65 60 59 52 53 51 48 46 42 34 39 38 38 36 36 37 37 40 40 39 36 36 36 36 37 41 40 39 32 36 41 41 39 36 36 35 39 38 39 43 36
61 60 65 61 63 57 57 56 53 54 44 39 44 39 35 33 40 41 47 49 43 41 39 40 41 41 42 37 40 40 33 33 37 40 39 35 34 32 36 40 41 43 38
61 63 62 66 63 56 55 55 53 55 46 42 41 39 18 22 25 30 31 28 25 30 35 40 41 42 42 40 35 36 34 33 35 38 36 36 33 30 34 38 37 39 35
59 60 65 66 62 54 48 45 48 49 41 50 44 47 55 38 19 11 18 18 24 29 34 29 33 42 40 38 38 40 40 34 37 38 33 34 32 32 38 37 33 29 23
56 59 64 66 58 51 42 40 44 44 43 45 50 47 52 49 48 38 39 34 24 23 28 31 36 38 29 31 32 35 37 40 38 35 32 32 31 36 38 35 33 26 22
61 59 64 58 49 44 43 39 40 42 37 41 45 48 50 45 45 46 42 36 31 27 27 26 22 21 23 26 30 29 30 34 35 35 29 32 32 37 38 37 33 25 19
59 54 53 45 42 42 38 33 43 39 39 38 38 39 39 36 38 38 29 32 29 27 27 20 18 15 21 25 33 30 34 31 30 33 30 30 30 35 35 26 31 25 26
53 43 40 39 39 37 33 38 36 34 33 33 35 33 32 33 34 34 30 28 28 26 28 22 19 17 14 23 24 28 37 30 33 32 32 29 29 32 28 29 25 22 24
48 39 36 43 40 36 30 31 33 28 30 31 30 30 30 32 34 29 31 32 27 23 19 22 23 22 19 21 27 28 35 32 32 30 32 28 28 32 29 28 22 26 29
46 40 45 44 39 32 31 35 33 32 31 35 30 28 30 29 30 29 31 28 25 22 17 14 15 12 17 17 22 40 41 28 28 29 29 31 32 33 33 29 28 31 30
45 43 46 42 36 36 36 36 33 34 35 29 29 30 28 27 25 27 32 30 26 22 18 17 15 10 19 19 18 28 36 29 28 31 28 31 32 35 32 33 30 34 32
47 45 43 41 39 41 40 36 33 28 27 28 29 30 29 28 26 26 26 26 25 22 19 17 19 17 21 26 25 25 29 26 27 28 28 30 33 34 34 33 33 33 28
46 47 43 40 41 43 37 27 19 18 23 23 25 27 28 30 30 30 26 25 22 24 23 20 22 24 25 33 33 28 23 26 28 28 29 28 34 36 33 35 35 32 33
49 47 44 45 44 41 29 21 22 18 16 20 24 28 31 35 33 33 29 24 26 28 26 25 23 26 30 31 30 30 30 30 31 32 29 27 33 33 31 34 35 35 31
51 50 49 47 36 27 23 26 20 17 16 18 23 29 34 36 34 31 31 30 32 31 29 33 30 32 36 32 35 36 35 34 34 31 33 35 36 37 32 42 42 34 30
57 55 44 37 35 29 28 23 24 22 21 25 26 28 29 32 30 31 31 29 31 29 33 40 40 40 42 40 34 39 42 40 36 35 40 38 33 35 37 37 40 35 29
60 49 44 34 32 31 25 27 24 24 25 21 20 21 25 28 29 31 32 29 29 21 18 32 38 43 42 41 37 41 42 44 41 39 41 43 34 38 33 36 36 30 29
54 48 39 39 32 28 28 26 23 20 17 15 14 16 21 22 23 27 33 33 30 24 20 22 28 26 33 35 32 34 44 40 36 39 39 35 39 32 34 35 32 31 31
45 43 42 34 30 28 23 20 16 15 15 15 19 23 19 19 24 26 30 33 32 28 27 24 26 23 23 30 36 38 44 47 41 43 41 38 40 42 32 35 34 34 33
46 48 36 32 27 22 19 19 17 18 16 19 24 25 22 21 21 23 23 31 33 34 34 33 31 30 31 30 33 35 40 45 46 38 48 39 41 43 34 40 38 36 36
Wind_Direction_500mb
256 260 262 263 263 264 264 267 270 269 268 266 265 266 265 263 262 241 243 256 264 272 269 287 279 307 312 309 271 242 231 224 217 217 223 228 230 228 224 233 231 230 230
260 262 265 266 266 268 267 267 271 272 271 268 267 268 266 261 255 236 238 259 264 270 277 289 275 291 299 301 277 249 234 229 220 217 221 224 232 233 223 231 232 227 230
261 262 264 263 265 269 267 265 268 267 266 265 263 263 265 249 243 237 244 261 260 271 275 280 279 282 286 296 286 261 239 231 225 220 222 223 228 232 232 231 231 231 226
262 266 266 265 266 271 264 264 266 268 266 261 260 265 263 237 238 241 258 267 264 271 269 272 273 275 274 281 285 274 248 235 229 223 223 227 228 231 230 228 235 224 225
266 269 270 271 267 270 268 267 266 267 262 259 258 263 256 243 241 258 257 270 272 280 276 271 267 271 270 271 272 271 261 238 229 228 228 228 229 228 231 230 229 219 234
261 265 271 272 272 268 270 267 266 263 263 262 258 258 258 253 249 257 261 268 277 276 274 268 258 266 268 258 266 267 257 242 231 226 228 230 231 228 230 230 224 222 233
260 265 268 271 273 273 278 271 266 260 259 254 252 256 261 255 246 246 259 271 274 272 267 263 256 268 269 261 263 258 254 247 230 224 226 228 231 229 228 228 227 227 226
259 263 267 270 274 277 275 269 262 258 254 246 244 253 259 252 248 258 272 272 269 267 264 261 264 272 271 264 259 247 247 234 228 222 224 226 229 231 228 227 227 224 220
254 261 266 270 272 271 271 269 262 254 253 245 237 235 231 236 256 266 271 273 269 265 268 265 266 270 268 265 250 239 244 229 221 219 222 224 228 226 223 229 226 224 230
252 260 267 268 263 261 264 267 259 251 250 243 239 240 235 250 245 243 258 281 294 291 265 263 271 275 272 255 242 236 241 225 220 218 222 222 223 221 220 223 225 221 219
254 263 268 260 256 253 258 256 246 243 248 241 238 240 239 244 248 251 272 277 281 288 271 270 272 272 256 243 231 222 240 233 220 215 216 220 217 218 218 216 216 218 204
254 266 267 260 252 248 250 249 245 245 244 238 241 241 245 244 247 254 257 256 277 281 277 280 273 258 248 237 222 226 220 219 210 208 210 214 214 213 212 211 212 201 192
258 273 269 257 239 241 243 249 244 245 232 239 242 240 245 248 253 259 245 257 269 275 280 281 269 269 235 223 208 222 219 209 206 206 206 211 210 211 212 215 194 187 178
261 274 262 245 237 238 234 248 228 225 224 235 235 238 242 242 243 252 252 251 263 264 275 272 266 257 233 210 215 223 209 204 200 203 202 204 201 202 207 202 189 183 183
259 256 246 235 234 233 244 226 216 221 228 225 225 239 241 241 246 246 247 252 260 253 270 272 259 259 234 219 223 214 197 198 201 199 198 198 193 193 192 198 189 198 193
250 233 232 227 231 230 240 219 219 230 217 222 223 238 237 241 244 244 240 243 252 257 252 270 268 254 222 202 233 208 192 191 194 191 190 190 188 189 193 185 188 196 180
230 222 224 227 230 214 219 207 219 211 214 220 225 232 239 237 238 237 241 244 244 249 255 257 237 225 194 187 156 168 180 189 188 185 182 181 184 185 190 184 192 198 182
217 218 221 223 214 210 207 204 203 204 214 225 232 233 229 230 234 235 238 239 239 240 241 235 218 209 193 196 201 176 169 181 183 178 175 177 179 183 183 189 193 194 181
213 209 214 202 188 189 190 184 207 237 228 231 230 228 231 235 237 231 227 232 235 222 215 226 213 195 190 180 169 170 171 179 176 172 168 173 180 180 184 189 187 186 185
204 197 182 178 184 172 175 192 209 214 226 229 231 236 239 241 237 234 216 233 220 211 205 214 212 190 187 190 200 191 179 175 170 170 160 169 171 179 191 193 181 185 190
182 172 173 169 166 167 183 194 205 226 240 244 245 242 238 233 228 229 224 228 211 210 212 203 196 185 178 177 185 181 173 168 166 167 168 174 180 187 186 186 183 189 203
166 163 162 164 166 180 196 205 224 242 259 266 257 244 229 225 220 219 218 212 209 213 206 197 190 185 182 186 187 184 177 171 161 176 178 175 189 189 197 186 190 205 201
161 159 164 173 185 184 200 216 237 253 262 252 242 216 209 218 221 204 202 205 200 215 241 209 196 197 190 187 190 178 179 171 171 172 180 178 183 188 186 191 202 203 205
162 162 173 180 178 194 211 222 241 249 234 227 203 186 180 185 192 196 196 190 186 194 202 209 214 217 212 203 196 194 180 168 171 175 183 185 184 193 191 194 203 204 206
171 177 177 180 195 205 217 229 224 209 197 181 169 167 172 177 174 174 186 188 186 185 182 198 215 214 214 212 203 191 184 175 179 184 189 203 190 193 205 212 210 208 217
171 171 177 187 200 209 210 198 187 184 168 162 166 167 163 165 167 171 186 195 190 184 188 192 192 195 204 208 202 200 193 190 182 189 203 205 211 204 205 218 222 226 227
Wind_Speed_850mb
56 58 58 56 53 52 53 54 53 54 53 51 53 49 44 38 34 35 31 27 25 22 19 22 23 23 28 26 19 24 27 30 34 39 42 41 40 40 42 38 32 29 29
59 57 57 55 49 48 50 50 49 51 51 48 47 46 44 39 35 34 30 28 28 26 26 28 25 28 32 27 21 25 29 31 33 36 39 38 37 38 43 37 32 34 34
57 52 52 50 42 39 42 45 43 45 45 44 41 39 38 34 32 35 35 32 34 33 30 35 33 32 32 26 25 25 32 36 36 35 35 35 33 38 41 36 36 34 34
54 54 54 52 40 38 38 38 38 40 40 41 35 31 30 31 28 37 37 38 34 36 37 40 41 37 34 27 29 25 32 38 40 37 34 32 33 34 38 39 35 35 31
55 59 61 56 45 42 43 39 41 39 41 37 33 29 27 29 33 29 35 37 36 37 41 37 37 35 38 38 31 31 30 40 43 41 38 34 33 34 37 36 34 36 30
56 60 63 60 54 47 48 46 45 40 41 33 34 32 32 33 38 38 33 34 37 40 38 35 32 34 38 39 37 35 31 37 43 41 39 37 35 36 38 36 37 40 29
57 59 65 60 59 52 53 51 48 46 42 34 39 38 38 36 36 37 37 40 40 39 36 36 36 36 37 41 40 39 32 36 41 41 39 36 36 35 39 38 39 43 36
61 60 65 61 63 57 57 56 53 54 44 39 44 39 35 33 40 41 47 49 43 41 39 40 41 41 42 37 40 40 33 33 37 40 39 35 34 32 36 40 41 43 38
61 63 62 66 63 56 55 55 53 55 46 42 41 39 18 22 25 30 31 28 25 30 35 40 41 42 42 40 35 36 34 33 35 38 36 36 33 30 34 38 37 39 35
59 60 65 66 62 54 48 45 48 49 41 50 44 47 55 38 19 11 18 18 24 29 34 29 33 42 40 38 38 40 40 34 37 38 33 34 32 32 38 37 33 29 23
56 59 64 66 58 51 42 40 44 44 43 45 50 47 52 49 48 38 39 34 24 23 28 31 36 38 29 31 32 35 37 40 38 35 32 32 31 36 38 35 33 26 22
61 59 64 58 49 44 43 39 40 42 37 41 45 48 50 45 45 46 42 36 31 27 27 26 22 21 23 26 30 29 30 34 35 35 29 32 32 37 38 37 33 25 19
59 54 53 45 42 42 38 33 43 39 39 38 38 39 39 36 38 38 29 32 29 27 27 20 18 15 21 25 33 30 34 31 30 33 30 30 30 35 35 26 31 25 26
53 43 40 39 39 37 33 38 36 34 33 33 35 33 32 33 34 34 30 28 28 26 28 22 19 17 14 23 24 28 37 30 33 32 32 29 29 32 28 29 25 22 24
48 39 36 43 40 36 30 31 33 28 30 31 30 30 30 32 34 29 31 32 27 23 19 22 23 22 19 21 27 28 35 32 32 30 32 28 28 32 29 28 22 26 29
46 40 45 44 39 32 31 35 33 32 31 35 30 28 30 29 30 29 31 28 25 22 17 14 15 12 17 17 22 40 41 28 28 29 29 31 32 33 33 29 28 31 30
45 43 46 42 36 36 36 36 33 34 35 29 29 30 28 27 25 27 32 30 26 22 18 17 15 10 19 19 18 28 36 29 28 31 28 31 32 35 32 33 30 34 32
47 45 43 41 39 41 40 36 33 28 27 28 29 30 29 28 26 26 26 26 25 22 19 17 19 17 21 26 25 25 29 26 27 28 28 30 33 34 34 33 33 33 28
46 47 43 40 41 43 37 27 19 18 23 23 25 27 28 30 30 30 26 25 22 24 23 20 22 24 25 33 33 28 23 26 28 28 29 28 34 36 33 35 35 32 33
49 47 44 45 44 41 29 21 22 18 16 20 24 28 31 35 33 33 29 24 26 28 26 25 23 26 30 31 30 30 30 30 31 32 29 27 33 33 31 34 35 35 31
51 50 49 47 36 27 23 26 20 17 16 18 23 29 34 36 34 31 31 30 32 31 29 33 30 32 36 32 35 36 35 34 34 31 33 35 36 37 32 42 42 34 30
57 55 44 37 35 29 28 23 24 22 21 25 26 28 29 32 30 31 31 29 31 29 33 40 40 40 42 40 34 39 42 40 36 35 40 38 33 35 37 37 40 35 29
60 49 44 34 32 31 25 27 24 24 25 21 20 21 25 28 29 31 32 29 29 21 18 32 38 43 42 41 37 41 42 44 41 39 41 43 34 38 33 36 36 30 29
54 48 39 39 32 28 28 26 23 20 17 15 14 16 21 22 23 27 33 33 30 24 20 22 28 26 33 35 32 34 44 40 36 39 39 35 39 32 34 35 32 31 31
45 43 42 34 30 28 23 20 16 15 15 15 19 23 19 19 24 26 30 33 32 28 27 24 26 23 23 30 36 38 44 47 41 43 41 38 40 42 32 35 34 34 33
46 48 36 32 27 22 19 19 17 18 16 19 24 25 22 21 21 23 23 31 33 34 34 33 31 30 31 30 33 35 40 45 46 38 48 39 41 43 34 40 38 36 36
Wind_Direction_850mb
256 260 262 263 263 264 264 267 270 269 268 266 265 266 265 263 262 241 243 256 264 272 269 287 279 307 312 309 271 242 231 224 217 217 223 228 230 228 224 233 231 230 230
260 262 265 266 266 268 267 267 271 272 271 268 267 268 266 261 255 236 238 259 264 270 277 289 275 291 299 301 277 249 234 229 220 217 221 224 232 233 223 231 232 227 230
261 262 264 263 265 269 267 265 268 267 266 265 263 263 265 249 243 237 244 261 260 271 275 280 279 282 286 296 286 261 239 231 225 220 222 223 228 232 232 231 231 231 226
262 266 266 265 266 271 264 264 266 268 266 261 260 265 263 237 238 241 258 267 264 271 269 272 273 275 274 281 285 274 248 235 229 223 223 227 228 231 230 228 235 224 225
266 269 270 271 267 270 268 267 266 267 262 259 258 263 256 243 241 258 257 270 272 280 276 271 267 271 270 271 272 271 261 238 229 228 228 228 229 228 231 230 229 219 234
261 265 271 272 272 268 270 267 266 263 263 262 258 258 258 253 249 257 261 268 277 276 274 268 258 266 268 258 266 267 257 242 231 226 228 230 231 228 230 230 224 222 233
260 265 268 271 273 273 278 271 266 260 259 254 252 256 261 255 246 246 259 271 274 272 267 263 256 268 269 261 263 258 254 247 230 224 226 228 231 229 228 228 227 227 226
259 263 267 270 274 277 275 269 262 258 254 246 244 253 259 252 248 258 272 272 269 267 264 261 264 272 271 264 259 247 247 234 228 222 224 226 229 231 228 227 227 224 220
254 261 266 270 272 271 271 269 262 254 253 245 237 235 231 236 256 266 271 273 269 265 268 265 266 270 268 265 250 239 244 229 221 219 222 224 228 226 223 229 226 224 230
252 260 267 268 263 261 264 267 259 251 250 243 239 240 235 250 245 243 258 281 294 291 265 263 271 275 272 255 242 236 241 225 220 218 222 222 223 221 220 223 225 221 219
254 263 268 260 256 253 258 256 246 243 248 241 238 240 239 244 248 251 272 277 281 288 271 270 272 272 256 243 231 222 240 233 220 215 216 220 217 218 218 216 216 218 204
254 266 267 260 252 248 250 249 245 245 244 238 241 241 245 244 247 254 257 256 277 281 277 280 273 258 248 237 222 226 220 219 210 208 210 214 214 213 212 211 212 201 192
258 273 269 257 239 241 243 249 244 245 232 239 242 240 245 248 253 259 245 257 269 275 280 281 269 269 235 223 208 222 219 209 206 206 206 211 210 211 212 215 194 187 178
261 274 262 245 237 238 234 248 228 225 224 235 235 238 242 242 243 252 252 251 263 264 275 272 266 257 233 210 215 223 209 204 200 203 202 204 201 202 207 202 189 183 183
259 256 246 235 234 233 244 226 216 221 228 225 225 239 241 241 246 246 247 252 260 253 270 272 259 259 234 219 223 214 197 198 201 199 198 198 193 193 192 198 189 198 193
250 233 232 227 231 230 240 219 219 230 217 222 223 238 237 241 244 244 240 243 252 257 252 270 268 254 222 202 233 208 192 191 194 191 190 190 188 189 193 185 188 196 180
230 222 224 227 230 214 219 207 219 211 214 220 225 232 239 237 238 237 241 244 244 249 255 257 237 225 194 187 156 168 180 189 188 185 182 181 184 185 190 184 192 198 182
217 218 221 223 214 210 207 204 203 204 214 225 232 233 229 230 234 235 238 239 239 240 241 235 218 209 193 196 201 176 169 181 183 178 175 177 179 183 183 189 193 194 181
213 209 214 202 188 189 190 184 207 237 228 231 230 228 231 235 237 231 227 232 235 222 215 226 213 195 190 180 169 170 171 179 176 172 168 173 180 180 184 189 187 186 185
204 197 182 178 184 172 175 192 209 214 226 229 231 236 239 241 237 234 216 233 220 211 205 214 212 190 187 190 200 191 179 175 170 170 160 169 171 179 191 193 181 185 190
182 172 173 169 166 167 183 194 205 226 240 244 245 242 238 233 228 229 224 228 211 210 212 203 196 185 178 177 185 181 173 168 166 167 168 174 180 187 186 186 183 189 203
166 163 162 164 166 180 196 205 224 242 259 266 257 244 229 225 220 219 218 212 209 213 206 197 190 185 182 186 187 184 177 171 161 176 178 175 189 189 197 186 190 205 201
161 159 164 173 185 184 200 216 237 253 262 252 242 216 209 218 221 204 202 205 200 215 241 209 196 197 190 187 190 178 179 171 171 172 180 178 183 188 186 191 202 203 205
162 162 173 180 178 194 211 222 241 249 234 227 203 186 180 185 192 196 196 190 186 194 202 209 214 217 212 203 196 194 180 168 171 175 183 185 184 193 191 194 203 204 206
171 177 177 180 195 205 217 229 224 209 197 181 169 167 172 177 174 174 186 188 186 185 182 198 215 214 214 212 203 191 184 175 179 184 189 203 190 193 205 212 210 208 217
171 171 177 187 200 209 210 198 187 184 168 162 166 167 163 165 167 171 186 195 190 184 188 192 192 195 204 208 202 200 193 190 182 189 203 205 211 204 205 218 222 226 227